This is the latest recevied weather packets stored in our database for station/object KK7KHO. If no packets are shown the sender has not sent any weather packets the latest 10 day(s).
| Time | Temp. | Humidity | Pressure | Rain* | Wind** | Luminosity | Snow |
|---|---|---|---|---|---|---|---|
| 1777315426 | 11.11° C | 87% | 1016.1 hPa | 0 mm | - | 130 W/m² | - |
| 1777315124 | 11.67° C | 86% | 1016.1 hPa | 0 mm | - | 117 W/m² | - |
| 1777314819 | 11.67° C | 86% | 1016.1 hPa | 0 mm | - | 164 W/m² | - |
| 1777314516 | 11.67° C | 85% | 1015.9 hPa | 0 mm | - | 229 W/m² | - |
| 1777314212 | 11.67° C | 84% | 1015.8 hPa | 0 mm | - | 196 W/m² | - |
| 1777313911 | 11.67° C | 85% | 1016 hPa | 0 mm | - | 267 W/m² | - |
| 1777313607 | 11.67° C | 85% | 1015.9 hPa | 0 mm | - | 244 W/m² | - |
| 1777313306 | 11.67° C | 84% | 1015.8 hPa | 0 mm | - | 234 W/m² | - |
| 1777313001 | 11.67° C | 85% | 1015.8 hPa | 0 mm | - | 171 W/m² | - |
| 1777312698 | 11.11° C | 84% | 1015.8 hPa | 0 mm | - | 151 W/m² | - |
| 1777312395 | 11.11° C | 84% | 1015.8 hPa | 0 mm | - | 177 W/m² | - |
| 1777312092 | 11.11° C | 84% | 1015.6 hPa | 0 mm | - | 188 W/m² | - |
| 1777311789 | 11.11° C | 84% | 1015.8 hPa | 0 mm | - | 182 W/m² | - |
| 1777311486 | 11.67° C | 84% | 1015.7 hPa | 0 mm | - | 165 W/m² | - |
| 1777311183 | 11.11° C | 84% | 1015.7 hPa | 0 mm | - | 187 W/m² | - |
| 1777310882 | 11.11° C | 84% | 1015.6 hPa | 0 mm | - | 193 W/m² | - |
| 1777310579 | 11.11° C | 85% | 1015.7 hPa | 0 mm | - | 165 W/m² | - |
| 1777310276 | 11.11° C | 85% | 1015.6 hPa | 0 mm | - | 160 W/m² | - |
| 1777309973 | 11.11° C | 85% | 1015.7 hPa | 0 mm | - | 124 W/m² | - |
| 1777309671 | 11.11° C | 84% | 1015.7 hPa | 0 mm | - | 140 W/m² | - |
| 1777309368 | 10.56° C | 85% | 1015.5 hPa | 0 mm | - | 115 W/m² | - |
| 1777309066 | 10.56° C | 84% | 1015.6 hPa | 0 mm | - | 117 W/m² | - |
| 1777308762 | 10.56° C | 84% | 1015.6 hPa | 0 mm | - | 99 W/m² | - |
| 1777308452 | 10.56° C | 85% | 1015.5 hPa | 0 mm | - | 100 W/m² | - |
| 1777308147 | 10.56° C | 85% | 1015.4 hPa | 0 mm | - | 102 W/m² | - |
* Rain latest hour (hover to see other rain measurements)
** Current wind speed in m/s (hover to see current wind gust speed)